Finales Départementales des Jeunes

Compétition Départementale

LENS

Le Dimanche 02 Juin 2013

Bassin de 50m

50 Dos Dames

Séries

Nom Année Temps Pts Club Pays
1 REMY Adeline 2000 0:35:62 984 STADE BÉTHUNE PÉLICAN CLUB FRA
2 DUHAMEL Cyrielle 2000 0:35:89 969 SN LENS FRA
3 THERY Celine 2000 0:36:36 944 ASL CANETONS LILLERS FRA
4 CABO Amelie 2001 0:37:29 895 RACING CLUB ARRAS FRA
5 PROUST Zélie 2000 0:38:12 853 USO BRUAY-LA-BUISSIERE FRA
6 BERDIN Emma 2000 0:38:31 844 CALAIS NATATION FRA
7 LUCAS Rebecca 2000 0:38:35 842 CALAIS NATATION FRA
8 NOTEBAERT Elsa 2001 0:38:77 821 SN LENS FRA
9 FICHAUX Ambre 2001 0:38:98 810 RACING CLUB ARRAS FRA
10 DELATTRE Garance 2002 0:39:12 803 DAUPHINS ST-OMER FRA
11 COUPIN Estelle 2001 0:39:15 802 CALAIS NATATION FRA
12 HAMILLE Lena 2001 0:39:38 791 US MONTREUIL-SUR-MER FRA
13 CASTELAN Leana 2001 0:39:46 787 BERCK NATATION FRA
14 CADIOU Chloe 2000 0:39:62 779 STADE BÉTHUNE PÉLICAN CLUB FRA
15 BATELLI Maeva 2000 0:39:75 773 SN LENS FRA
16 KOUADIO PATINIER Lucie 2000 0:39:77 772 BERCK NATATION FRA
17 BERRABAH Myriem 2001 0:39:83 769 CN HÉNIN-BEAUMONT FRA
18 DECOONINCK Lea 2000 0:39:85 768 CN COURRIÈRES FRA
19 VANDERZYPPE Jeanne 2000 0:39:95 763 BERCK NATATION FRA
20 CATEZ Oceane 2001 0:40:03 760 STADE BÉTHUNE PÉLICAN CLUB FRA
21 CLAY Margot 2000 0:40:18 753 ENC ACHICOURT FRA
22 TRENEL Maurine 2001 0:40:30 747 RACING CLUB ARRAS FRA
23 DE PAOLI Fiona 2000 0:40:36 744 RACING CLUB ARRAS FRA
24 LEFEBVRE Sofia 2000 0:40:52 737 RACING CLUB ARRAS FRA
25 WALLART Agathe 2000 0:40:52 737 SN LENS FRA
26 VAUCHEL Emma 2000 0:40:56 735 DAUPHINS ST-OMER FRA
27 COLLIER Eva 2003 0:40:69 729 CALAIS NATATION FRA
28 CIURLIK Pauline 2000 0:40:75 726 DAUPHINS ST-OMER FRA
29 DENUDT Juliette 2000 0:40:80 723 CALAIS NATATION FRA
30 LUX Angéline 2001 0:40:82 723 CN COURRIÈRES FRA
31 MARCINIAK Marie 2001 0:40:84 722 SN LENS FRA
32 NOYELLE Margaux 2000 0:41:03 713 BERCK NATATION FRA
33 KONRAD Lory 2000 0:41:06 711 CN COURRIÈRES FRA
34 ZAJAC Margot 2001 0:41:41 695 STADE BÉTHUNE PÉLICAN CLUB FRA
35 VANHOYE Célia 2000 0:41:47 693 STADE BÉTHUNE PÉLICAN CLUB FRA
36 DELATTRE Lison 2000 0:41:56 689 DAUPHINS ST-OMER FRA
37 LENGLEN Julie 2000 0:41:57 688 CALAIS NATATION FRA
38 VIDELAINE Manuella 2002 0:41:63 686 ASL CANETONS LILLERS FRA
39 LANCEZ Emma 2001 0:41:72 681 RACING CLUB ARRAS FRA
40 HENOCQ Charlotte 2001 0:41:89 674 RACING CLUB ARRAS FRA
41 NOWACZYK Lison 2003 0:42:13 663 AUCHEL NATATION FRA
42 DELPLANQUE Claire 2002 0:42:36 653 CN HÉNIN-BEAUMONT FRA
43 RIBEIRO Léa 2001 0:42:40 651 DAUPHINS ST-OMER FRA
44 TIRMARCHE Clémence 2001 0:42:47 648 STADE BÉTHUNE PÉLICAN CLUB FRA
45 SERGENT Bulle 2000 0:42:52 646 DAUPHINS ST-OMER FRA
46 COULPIER Chana 2001 0:42:54 645 BERCK NATATION FRA
47 GRAS Blandine 2001 0:42:65 640 CN DIVION FRA
48 BRUTIER Clara 2000 0:42:65 640 CALAIS NATATION FRA
49 MORTIER Philippine 2002 0:42:73 637 BERCK NATATION FRA
50 WACKENS Capucine 2001 0:42:85 632 SN LENS FRA
51 ROCHE-MATHON Leah 2001 0:43:03 624 RACING CLUB ARRAS FRA
52 ROUSSEL Marie 2002 0:43:20 616 ENC ACHICOURT FRA
53 TEMPEZ Chloe 2003 0:43:25 614 CN FREVENT FRA
54 DECOUVELAERE Manon 2001 0:43:30 612 STADE BÉTHUNE PÉLICAN CLUB FRA
55 CORION Florine 2000 0:43:33 611 CALAIS NATATION FRA
56 GHYS Chloé 2002 0:43:44 606 TRITONS LUMBRES FRA
57 LEFEBVRE Albane 2000 0:43:52 603 STADE BÉTHUNE PÉLICAN CLUB FRA
58 ABACHIN Apolline 2001 0:43:64 598 CALAIS NATATION FRA
59 HERBAUX-VERMEULEN Anais 2002 0:43:83 590 ENC ACHICOURT FRA
60 CARNEZ Oceane 2002 0:43:93 586 CN DIVION FRA
61 MEDJAHED Eliana 2000 0:44:32 569 HIPPO. MONTIGNY-EN-GOHELLE FRA
62 DELABRE Justine 2000 0:44:65 556 SN LENS FRA
63 LESMARIE Lara 2001 0:44:68 555 SN LENS FRA
64 QUEVA Camille 2002 0:44:72 553 RACING CLUB ARRAS FRA
65 RÉMY Capucine 2002 0:44:84 548 CN FREVENT FRA
66 ARZUL Agathe 2002 0:44:97 543 RACING CLUB ARRAS FRA
67 LORGNIER Bérénice 2001 0:45:11 537 TRITONS LUMBRES FRA
68 LEURS Chloe 2001 0:45:42 525 SN LENS FRA
69 JASINSKI Anya 2003 0:45:46 524 STADE BÉTHUNE PÉLICAN CLUB FRA
70 PILLE Emma 2000 0:45:56 520 RACING CLUB ARRAS FRA
71 DIDIER Maëlle 2003 0:45:69 515 RACING CLUB ARRAS FRA
72 QUEVA Joséphine 2003 0:45:72 513 US MONTREUIL-SUR-MER FRA
73 NOSKOWIAK Mathilde 2001 0:45:74 513 US MONTREUIL-SUR-MER FRA
74 SABRE Lucie 2002 0:45:77 511 SN LENS FRA
75 DEWYNTER Solene 2001 0:45:92 506 DAUPHINS ST-OMER FRA
76 DELANNOY Margot 2003 0:46:06 500 DAUPHINS ST-OMER FRA
77 CREPIN Léa 2002 0:46:22 494 BERCK NATATION FRA
78 GALLOIS Clemence 2001 0:46:42 486 ASL CANETONS LILLERS FRA
79 VILLAYES Olivia 2003 0:46:42 486 SN LENS FRA
80 LOVINY Margaux 2003 0:46:43 486 RACING CLUB ARRAS FRA
81 MATHUREL Valentine 2003 0:46:75 474 US MONTREUIL-SUR-MER FRA
82 OLESINSKI Anaïs 2002 0:46:75 474 USO BRUAY-LA-BUISSIERE FRA
83 SZUMNY Chloe 2003 0:46:91 468 ASL CANETONS LILLERS FRA
84 TROLLE Louise 2001 0:46:97 466 US MONTREUIL-SUR-MER FRA
85 MARINELLI Lucy 2002 0:47:01 464 DAUPHINS ST-OMER FRA
86 WAREMBOURG Eulalie 2002 0:47:05 463 RACING CLUB ARRAS FRA
87 OUKARACHE Lyna 2003 0:47:33 452 CALAIS NATATION FRA
88 BAYARD Kristina 2003 0:47:40 450 DAUPHINS ST-OMER FRA
89 VESIN Romane 2003 0:47:62 442 CN COURRIÈRES FRA
90 GIVERN Maëva 2002 0:47:65 441 BERCK NATATION FRA
91 LENCLOS Norah 2003 0:47:69 439 DAUPHINS ST-OMER FRA
92 BERTELOOT Louise 2001 0:47:98 429 TRITONS LUMBRES FRA
93 BOCAERT Camille 2004 0:47:98 429 US MONTREUIL-SUR-MER FRA
94 DELEMOTTE Marie 2003 0:47:99 429 ASL CANETONS LILLERS FRA
95 REBAÏ Ines 2002 0:48:00 428 CALAIS NATATION FRA
96 PERRAULT Emma 2003 0:48:03 427 US MONTREUIL-SUR-MER FRA
97 VERHAMME Mallaury 2002 0:48:08 425 US MONTREUIL-SUR-MER FRA
98 QUEVAT Elise 2002 0:48:36 415 ASL CANETONS LILLERS FRA
99 SGARD LAVIEVILLE Justine 2002 0:48:60 407 CALAIS NATATION FRA
100 WARNAULT Zoé 2002 0:48:79 400 CN FREVENT FRA
101 DELPLANQUE Justine 2003 0:49:00 393 US MONTREUIL-SUR-MER FRA
102 LUCAS Raphaëlle 2004 0:49:27 384 CALAIS NATATION FRA
103 CANONNE Louanne 2003 0:49:29 383 SC BOULOGNE-SUR-MER FRA
104 DELAIRE Anaelle 2004 0:49:29 383 STADE BÉTHUNE PÉLICAN CLUB FRA
105 HERBAUT Zéline 2002 0:49:34 382 CALAIS NATATION FRA
106 BRIOUL Julie 2004 0:49:43 379 TRITONS LUMBRES FRA
107 DEBRIS Anaëlle 2002 0:49:59 373 BERCK NATATION FRA
108 DARON Juliette 2002 0:49:75 368 STADE BÉTHUNE PÉLICAN CLUB FRA
109 LENOIR Anaïs 2003 0:49:92 362 USO BRUAY-LA-BUISSIERE FRA
110 SERDOBBEL Anaelle 2004 0:49:98 360 USO BRUAY-LA-BUISSIERE FRA
111 JOLY Jennifer 2002 0:50:17 354 CN FREVENT FRA
112 BOROWSKI Léa 2003 0:50:23 352 CN DIVION FRA
113 MAGNIER Adele 2004 0:50:35 348 DAUPHINS ST-OMER FRA
114 JOETS Clemence 2002 0:50:58 341 STADE BÉTHUNE PÉLICAN CLUB FRA
115 CAUCHARD Axelle 2002 0:50:61 340 ASL CANETONS LILLERS FRA
116 HOGUET Perrine 2004 0:50:88 332 CN FREVENT FRA
117 MARTIN-GARRIN Yoline 2002 0:51:32 318 STADE BÉTHUNE PÉLICAN CLUB FRA
118 TARADEL Emilie 2002 0:51:73 305 HIPPO. MONTIGNY-EN-GOHELLE FRA
119 LEDUCQ Annette 2004 0:51:80 303 SC BOULOGNE-SUR-MER FRA
120 MORRESI Julie 2003 0:52:10 294 TRITONS LUMBRES FRA
121 DELEAU Meline 2003 0:52:12 294 SC BOULOGNE-SUR-MER FRA
122 PIJANOWSKI Alexia 2002 0:52:34 287 RACING CLUB ARRAS FRA
123 RODRIGUEZ Juliette 2005 0:52:56 281 US MONTREUIL-SUR-MER FRA
124 LOUVET Héloïse 2003 0:52:56 281 CALAIS NATATION FRA
125 HUCHIN Camille 2003 0:52:60 280 SC BOULOGNE-SUR-MER FRA
126 COULPIER Taïna 2004 0:53:25 261 BERCK NATATION FRA
127 SAULAY Baptistine 2003 0:54:15 237 RACING CLUB ARRAS FRA
128 HAHAD Meriem 2003 0:54:15 237 BERCK NATATION FRA
129 COCQUEMAN Marie 2004 0:54:86 218 CN FREVENT FRA
130 LE LAY Alix 2005 0:54:86 218 RACING CLUB ARRAS FRA
131 GUY Mylene 2004 0:56:81 172 SC BOULOGNE-SUR-MER FRA
132 PAWLAK Ambre 2003 0:57:36 159 CN COURRIÈRES FRA
133 DELOUX Carla 2003 0:59:17 122 STADE BÉTHUNE PÉLICAN CLUB FRA
134 MARQUIS Faustine 2004 1:01:21 87 DAUPHINS ST-OMER FRA
RACING CLUB ARRAS